| time (UTC) | temp F | wind direction | speed knots | gust knots | rain 1hr in | rain 24hr in | rain mn in | humidity % | barometer mb |
| 20260906163103 | 68 | 360 | 2.6 | 0.0 | 0.00 | 0.00 | 0.00 | 40 | 1026.0 |
| 20260906162254 | 68 | 310 | 4.3 | 0.0 | 0.00 | 0.00 | 0.00 | 37 | |
| 20260906160210 | 68 | 310 | 4.3 | 0.0 | 0.00 | 0.00 | 0.00 | 40 | 1026.0 |
| 20260906153103 | 68 | 320 | 5.2 | 0.0 | 0.00 | 0.00 | 0.00 | 40 | 1026.0 |
| 20260906143104 | 68 | 310 | 6.1 | 0.0 | 0.00 | 0.00 | 0.00 | 42 | 1027.0 |
| 20260906141849 | 68 | 310 | 6.1 | 0.0 | 0.00 | 0.00 | 0.00 | 40 | |
| 20260906133103 | 66 | 270 | 7.0 | 0.0 | 0.00 | 0.00 | 0.00 | 45 | 1027.0 |
| 20260906132153 | 66 | 260 | 6.1 | 0.0 | 0.00 | 0.00 | 0.00 | 42 | |
| 20260906130103 | 66 | 300 | 6.1 | 0.0 | 0.00 | 0.00 | 0.00 | 42 | 1027.0 |
| 20260906123103 | 66 | 260 | 7.0 | 0.0 | 0.00 | 0.00 | 0.00 | 42 | 1027.0 |
| 20260906121851 | 66 | 240 | 6.1 | 0.0 | 0.00 | 0.00 | 0.00 | 42 | |
| 20260906113103 | 64 | 290 | 10.4 | 0.0 | 0.00 | 0.00 | 0.00 | 48 | 1027.0 |
| 20260906111852 | 64 | 280 | 10.4 | 0.0 | 0.00 | 0.00 | 0.00 | 45 | |
| 20260906110210 | 64 | 270 | 11.3 | 0.0 | 0.00 | 0.00 | 0.00 | 48 | 1027.0 |
| 20260906103102 | 63 | 310 | 5.2 | 0.0 | 0.00 | 0.00 | 0.00 | 55 | 1028.0 |
| 20260906102253 | 63 | 260 | 4.3 | 0.0 | 0.00 | 0.00 | 0.00 | 51 | |
| 20260906093103 | 61 | 270 | 7.8 | 0.0 | 0.00 | 0.00 | 0.00 | 59 | 1028.0 |
| 20260906091851 | 61 | 290 | 7.8 | 0.0 | 0.00 | 0.00 | 0.00 | 55 | |
| 20260906083103 | 61 | 280 | 7.8 | 0.0 | 0.00 | 0.00 | 0.00 | 59 | 1028.0 |
| 20260906081853 | 61 | 270 | 7.8 | 0.0 | 0.00 | 0.00 | 0.00 | 59 | |
| 20260906080103 | 61 | 280 | 7.8 | 0.0 | 0.00 | 0.00 | 0.00 | 59 | 1027.0 |
| 20260906073103 | 59 | 290 | 8.7 | 0.0 | 0.00 | 0.00 | 0.00 | 67 | 1027.0 |
| 20260906072153 | 59 | 290 | 7.8 | 0.0 | 0.00 | 0.00 | 0.00 | 62 | |
| 20260906063103 | 57 | 280 | 7.8 | 0.0 | 0.00 | 0.00 | 0.00 | 71 | 1026.0 |
| 20260906061852 | 57 | 270 | 6.1 | 0.0 | 0.00 | 0.00 | 0.00 | 67 | |
| 20260906060103 | 57 | 270 | 7.0 | 0.0 | 0.00 | 0.00 | 0.00 | 71 | 1026.0 |
| 20260906053103 | 54 | 250 | 6.1 | 0.0 | 0.00 | 0.00 | 0.00 | 81 | 1026.0 |
| 20260906051850 | 55 | 240 | 6.1 | 0.0 | 0.00 | 0.00 | 0.00 | 71 | |
| 20260906043102 | 54 | 250 | 6.1 | 0.0 | 0.00 | 0.00 | 0.00 | 81 | 1025.0 |
| 20260906042253 | 55 | 240 | 4.3 | 0.0 | 0.00 | 0.00 | 0.00 | 71 | |
| 20260906040104 | 52 | 240 | 5.2 | 0.0 | 0.00 | 0.00 | 0.00 | 81 | 1025.0 |
| 20260906033103 | 54 | 250 | 5.2 | 0.0 | 0.00 | 0.00 | 0.00 | 81 | 1025.0 |
| 20260906031850 | 55 | 240 | 6.1 | 0.0 | 0.00 | 0.00 | 0.00 | 71 | |
| 20260906023103 | 55 | 260 | 4.3 | 0.0 | 0.00 | 0.00 | 0.00 | 71 | 1025.0 |
| 20260906021850 | 57 | 260 | 4.3 | 0.0 | 0.00 | 0.00 | 0.00 | 67 | |
| 20260906013103 | 57 | 280 | 6.1 | 0.0 | 0.00 | 0.00 | 0.00 | 67 | 1024.0 |
| 20260906012151 | 59 | 270 | 6.1 | 0.0 | 0.00 | 0.00 | 0.00 | 62 | |
| 20260906010104 | 57 | 260 | 5.2 | 0.0 | 0.00 | 0.00 | 0.00 | 67 | 1024.0 |
| 20260906003103 | 59 | 260 | 5.2 | 0.0 | 0.00 | 0.00 | 0.00 | 62 | 1024.0 |
| 20260906001851 | 59 | 280 | 4.3 | 0.0 | 0.00 | 0.00 | 0.00 | 62 | |
| 20260905233103 | 59 | 270 | 6.1 | 0.0 | 0.00 | 0.00 | 0.00 | 62 | 1024.0 |
| 20260905231834 | 61 | 270 | 7.8 | 0.0 | 0.00 | 0.00 | 0.00 | 59 | |
| 20260905230103 | 61 | 270 | 7.0 | 0.0 | 0.00 | 0.00 | 0.00 | 59 | 1024.0 |
| 20260905223103 | 61 | 260 | 7.0 | 0.0 | 0.00 | 0.00 | 0.00 | 59 | 1023.0 |
| 20260905222254 | 61 | 280 | 10.4 | 0.0 | 0.00 | 0.00 | 0.00 | 55 | |
| 20260905213102 | 63 | 270 | 7.8 | 0.0 | 0.00 | 0.00 | 0.00 | 55 | 1023.0 |
| 20260905211849 | 63 | 270 | 7.8 | 0.0 | 0.00 | 0.00 | 0.00 | 51 | |
| 20260905210127 | 63 | 270 | 7.8 | 0.0 | 0.00 | 0.00 | 0.00 | 55 | 1023.0 |
| 20260905210031 | 63 | 270 | 6.1 | 0.0 | 0.00 | 0.00 | 0.00 | 55 | 1022.0 |
| 20260905205109 | 63 | 270 | 6.1 | 0.0 | 0.00 | 0.00 | 0.00 | 55 | 1022.0 |
| 20260905204709 | 63 | 270 | 6.1 | 0.0 | 0.00 | 0.00 | 0.00 | 55 | 1022.0 |
| 20260905204110 | 63 | 270 | 6.1 | 0.0 | 0.00 | 0.00 | 0.00 | 55 | 1022.0 |
| 20260905203210 | 63 | 270 | 6.1 | 0.0 | 0.00 | 0.00 | 0.00 | 55 | 1022.0 |
| 20260905201851 | 64 | 270 | 7.8 | 0.0 | 0.00 | 0.00 | 0.00 | 48 | |
| 20260905200910 | 64 | 270 | 7.8 | 0.0 | 0.00 | 0.00 | 0.00 | 52 | 1022.0 |
| 20260905200311 | 64 | 270 | 7.8 | 0.0 | 0.00 | 0.00 | 0.00 | 52 | 1022.0 |
| 20260905195910 | 64 | 280 | 12.2 | 0.0 | 0.00 | 0.00 | 0.00 | 52 | 1022.0 |
| 20260905195210 | 64 | 280 | 12.2 | 0.0 | 0.00 | 0.00 | 0.00 | 52 | 1022.0 |
| 20260905194110 | 64 | 280 | 12.2 | 0.0 | 0.00 | 0.00 | 0.00 | 52 | 1022.0 |
| 20260905193416 | 64 | 280 | 12.2 | 0.0 | 0.00 | 0.00 | 0.00 | 52 | 1022.0 |
| 20260905193210 | 64 | 280 | 12.2 | 0.0 | 0.00 | 0.00 | 0.00 | 52 | 1022.0 |
| 20260905192711 | 66 | 280 | 11.3 | 0.0 | 0.00 | 0.00 | 0.00 | 48 | 1021.0 |
| 20260905192322 | 64 | 280 | 12.2 | 0.0 | 0.00 | 0.00 | 0.00 | 48 | |
| 20260905192117 | 66 | 280 | 11.3 | 0.0 | 0.00 | 0.00 | 0.00 | 48 | 1021.0 |
| 20260905191610 | 66 | 280 | 11.3 | 0.0 | 0.00 | 0.00 | 0.00 | 48 | 1021.0 |
| 20260905181909 | 66 | 280 | 7.8 | 0.0 | 0.00 | 0.00 | 0.00 | 48 | |
| 20260905181309 | 66 | 280 | 7.8 | 0.0 | 0.00 | 0.00 | 0.00 | 48 | 1021.0 |
| 20260905181109 | 66 | 280 | 7.8 | 0.0 | 0.00 | 0.00 | 0.00 | 48 | 1021.0 |
| 20260905180710 | 66 | 280 | 7.8 | 0.0 | 0.00 | 0.00 | 0.00 | 48 | 1021.0 |
| 20260905180312 | 66 | 280 | 7.8 | 0.0 | 0.00 | 0.00 | 0.00 | 48 | 1021.0 |
| 20260905180110 | 66 | 280 | 7.8 | 0.0 | 0.00 | 0.00 | 0.00 | 48 | 1021.0 |
| 20260905175410 | 70 | 290 | 10.4 | 0.0 | 0.00 | 0.00 | 0.00 | 40 | 1020.0 |
| 20260905175209 | 70 | 290 | 10.4 | 0.0 | 0.00 | 0.00 | 0.00 | 40 | 1020.0 |
| 20260905174710 | 70 | 290 | 10.4 | 0.0 | 0.00 | 0.00 | 0.00 | 40 | 1020.0 |
| 20260905174110 | 70 | 290 | 10.4 | 0.0 | 0.00 | 0.00 | 0.00 | 40 | 1020.0 |
| 20260905173417 | 70 | 290 | 10.4 | 0.0 | 0.00 | 0.00 | 0.00 | 40 | 1020.0 |
| 20260905172710 | 70 | 290 | 12.2 | 0.0 | 0.00 | 0.00 | 0.00 | 40 | 1020.0 |
| 20260905172117 | 70 | 290 | 12.2 | 0.0 | 0.00 | 0.00 | 0.00 | 40 | 1020.0 |
| 20260905171909 | 70 | 290 | 12.2 | 0.0 | 0.00 | 0.00 | 0.00 | 40 | |
| 20260905171532 | 70 | 290 | 12.2 | 0.0 | 0.00 | 0.00 | 0.00 | 40 | 1020.0 |
| 20260905170524 | 70 | 290 | 12.2 | 0.0 | 0.00 | 0.00 | 0.00 | 40 | 1020.0 |